INTELSAT 32E (IS-32E) (41945 NORAD) Tracking and Keplerian Element Data

This shows tracking and keplerian element data for the satellite.

Feedback or suggestion? Click here.




ElementValue
Catalog41945
NameINTELSAT 32E (IS-32E)
Epoch Orbit1007
Epoch Day316.82419361
Epoch Year2019
RAAN292.8616
Inclination0.0205
Eccentricity1.86E-05
Argument of Perigee297.1697
Mean Anonmoly75.1524
Mean Motion1.00267658
Decay Rate-2.55E-06
L11 41945U 17007B 19316.82419361 -.00000255 00000-0 00000-0 0 9995
L22 41945 0.0205 292.8616 0000186 297.1697 75.1524 1.00267658 10079

Live tracking and technical data element details for INTELSAT 32E (IS-32E) (NORAD 41945). INTELSAT 32E (IS-32E) can be tracked NOW for your location showing map with azimuth and elevation plus other details from your city location.

Track the satellite on the map from your city or location and see movement details for azimuth, elevation, latitude, longitude, range, height, and movement on the map or in text.







IsCatalogInMostPopularTable: catalog: 41945, numindb: 338
Update: records affected: 1



GetName: 41945 INTELSAT 32E (IS-32E)

Hit Count: updated at: Wed, 13 Nov 2019 17:45:40 GMT